TOURFACTS.DK  
Stats and Facts from Tour de France.

Tour de France 2018 starts in 203 days
  Riders   Stages   Teams   Summits   Yearly  


 
Search by year

 2017 - St. 21:  14824 starters.
  5132 different riders.
  635 teams.
  2232 stages.
  454 restdays.
  439589.60 km.
  5653 abandonnees.


Top 3
Christopher Froome86:20:55
Rigoberto Uran86:21:49
Romain Bardet86:23:15
Warren Barguil169 pt.
Primoz Roglic80 pt.
Thomas De Gendt64 pt.
Michael Matthews359 pt.
André Greipel234 pt.
Edvald Boasson Hagen220 pt.
Simon Yates86:27:09
Louis Meintjes86:29:15
Emanuel Buchmann86:54:16
Facts from Tour de France 2015
  |   Stages.  |   Stage winners.  |   Days in yellow  |   Average speed.  |   Route.  |   Teams.  |   All riders.  |   Rookies.  |   Withdrawls.  |  

  |   GC.  |   Polka  |   Green  |   White  |   Summits. (In tour)  |   Summits. (Points)  |   Miscellaneous.  |  

Stage 8 on 11 - 07 - 2015
         Owning:    Christopher Froome      Daniel Teklehaimanot      Peter Sagan      Peter Sagan  

Pick a stage:  1 2 3 4 5 6 7 8 9 10 11 12 13 14 15 16 17 18 19 20 21
  RennesMûr de Bretagne | Dist: 181.50 km.
Cat: 4Col du Mont Bel-AirFRARomain Sicard
1 point
 
Cat: 3Mûr-de-BretagneFRAAlexis Vuillermoz
2 points
 

Average speed for all riders in stage:  40,934 km./hr.
    Place:Name:Team:Time:Km/h:
FRAAlexis VuillermozFRAAg2r La Mondiale04:20:55  +  00:00:00=41,737 
ENGDaniel MartinUSATeam Cannondale - Garmin04:21:00  +  00:00:05=41,724 
3 BELSerge PauwelsZAFMTN - Qhubeka P/B Samsung04:21:15  +  00:00:20=41,684 
4 ESPHaimar ZubeldiaUSATrek Factory Racing04:21:15  +  00:00:20=41,684 
5 ITAVincenzo NibaliKAZAstana Pro Team04:21:15  +  00:00:20=41,684 
6 USAAndrew TalanskyUSATeam Cannondale - Garmin04:21:15  +  00:00:20=41,684 
7 FRAThibaut PinotFRAFDJ04:21:20  +  00:00:25=41,671 
8 BELJan BakelantsFRAAg2r La Mondiale04:21:26  +  00:00:31=41,655 
9 FRARomain BardetFRAAg2r La Mondiale04:21:26  +  00:00:31=41,655 
10 GERPaul VossDEUBora-Argon 1804:21:28  +  00:00:33=41,650 
11 GERDominik NerzDEUBora-Argon 1804:21:28  +  00:00:33=41,650 
12 FRACyril GautierFRATeam Europcar04:21:28  +  00:00:33=41,650 
13 CZEZdenek StybarBELEtixx - Quick Step04:21:28  +  00:00:33=41,650 
14 SUIMarcel WyssCHEIAM Cycling04:21:28  +  00:00:33=41,650 
15 GERSimon GeschkeDEUTeam Giant Alpecin04:21:28  +  00:00:33=41,650 
16 COLJarlinson Pantano GomezCHEIAM Cycling04:21:36  +  00:00:41=41,628 
17 FRAThomas VoecklerFRATeam Europcar04:21:36  +  00:00:41=41,628 
18 ESPLuis Angel MateFRACofidis – Solutions Crédits04:21:40  +  00:00:45=41,618 
19 NEDSteven KruijswijkNLDTeam Lotto NL - Jumbo04:21:40  +  00:00:45=41,618 
20 ARGEduardo SepulvedaFRABretagne - Séché Environnement04:21:40  +  00:00:45=41,618 
21 FRAPierrick FédrigoFRABretagne - Séché Environnement04:21:40  +  00:00:45=41,618 
22 PORRui CostaITALampre-Merida04:21:40  +  00:00:45=41,618 
23 WALGeraint ThomasGBRSky Procycling04:21:54  +  00:00:59=41,581 
24 PORTiago PintoRUSTeam Katusha04:21:54  +  00:00:59=41,581 
25 ITAGiampaolo CarusoRUSTeam Katusha04:21:54  +  00:00:59=41,581 
26 ESPAlberto LosadaRUSTeam Katusha04:21:54  +  00:00:59=41,581 
27 URSTanel KangertKAZAstana Pro Team04:21:54  +  00:00:59=41,581 
28 NOREdvald Boasson HagenZAFMTN - Qhubeka P/B Samsung04:21:57  +  00:01:02=41,573 
29 FRASylvain ChavanelCHEIAM Cycling04:21:57  +  00:01:02=41,573 
30 FRAAnthony DelaplaceFRABretagne - Séché Environnement04:21:57  +  00:01:02=41,573 
31 SUIJakob FuglsangKAZAstana Pro Team04:22:04  +  00:01:09=41,554 
32 AUTGeorg PreidlerDEUTeam Giant Alpecin04:22:04  +  00:01:09=41,554 
33 NEDLaurens ten DamNLDTeam Lotto NL - Jumbo04:22:04  +  00:01:09=41,554 
34 RSAJacques Janse Van RensburgZAFMTN - Qhubeka P/B Samsung04:22:04  +  00:01:09=41,554 
35 FRAMickaël CherelFRAAg2r La Mondiale04:22:04  +  00:01:09=41,554 
36 COLWinner AnaconaESPMovistar Team04:22:04  +  00:01:09=41,554 
37 ESPRafael Valls FerriITALampre-Merida04:22:08  +  00:01:13=41,544 
38 ERIDaniel TeklehaimanotZAFMTN - Qhubeka P/B Samsung04:22:08  +  00:01:13=41,544 
39 FRAArmindo FonsecaFRABretagne - Séché Environnement04:22:08  +  00:01:13=41,544 
40 CZEJan BártaDEUBora-Argon 1804:22:35  +  00:01:40=41,473 
41 FRABrice FeilluFRABretagne - Séché Environnement04:22:35  +  00:01:40=41,473 
42 PORJosé João PimentaDEUBora-Argon 1804:22:35  +  00:01:40=41,473 
43 NEDStef ClementCHEIAM Cycling04:22:55  +  00:02:00=41,420 
44 FRAJérôme CoppelCHEIAM Cycling04:22:55  +  00:02:00=41,420 
45 NEDKoen De KortDEUTeam Giant Alpecin04:22:55  +  00:02:00=41,420 
46 NEDBram TankinkNLDTeam Lotto NL - Jumbo04:22:55  +  00:02:00=41,420 
47 ESPRubén PlazaITALampre-Merida04:22:55  +  00:02:00=41,420 
48 FRAGeoffrey SoupeFRACofidis – Solutions Crédits04:23:03  +  00:02:08=41,399 
49 SUISteve MorabitoFRAFDJ04:23:03  +  00:02:08=41,399 
50 UKRAndriy GrivkoKAZAstana Pro Team04:23:21  +  00:02:26=41,352 
51 ESPMarkel IrizarUSATrek Factory Racing04:23:21  +  00:02:26=41,352 
52 NEDRoy CurversDEUTeam Giant Alpecin04:23:21  +  00:02:26=41,352 
53 BELSep VanmarckeNLDTeam Lotto NL - Jumbo04:23:31  +  00:02:36=41,326 
54 ESPJonathan CastroviejoESPMovistar Team04:23:44  +  00:02:49=41,292 
55 SLOKristjan KorenUSATeam Cannondale - Garmin04:23:44  +  00:02:49=41,292 
56 HRVKristijan DurasekITALampre-Merida04:23:44  +  00:02:49=41,292 
57 FRABenoit VaugrenardFRAFDJ04:23:44  +  00:02:49=41,292 
58 LUXBen GastauerFRAAg2r La Mondiale04:23:44  +  00:02:49=41,292 
59 RSAReinardt Janse Van RensburgZAFMTN - Qhubeka P/B Samsung04:23:44  +  00:02:49=41,292 
60 SUIReto HollensteinCHEIAM Cycling04:23:44  +  00:02:49=41,292 
61 FRAPerrig QuemeneurFRATeam Europcar04:24:00  +  00:03:05=41,250 
62 FRABryan NauleauFRATeam Europcar04:24:00  +  00:03:05=41,250 
63 NEDJos Van EmdenNLDTeam Lotto NL - Jumbo04:24:03  +  00:03:08=41,242 
64 ITAFilippo PozzatoITALampre-Merida04:24:03  +  00:03:08=41,242 
65 ESPJosé Herrada LópezESPMovistar Team04:24:03  +  00:03:08=41,242 
66 NEDRamon SinkeldamDEUTeam Giant Alpecin04:24:03  +  00:03:08=41,242 
67 AUSLuke DurbridgeAUSOrica - GreenEDGE04:24:03  +  00:03:08=41,242 
68 NEDWilco KeldermanNLDTeam Lotto NL - Jumbo04:24:03  +  00:03:08=41,242 
69 NEDTom LeezerNLDTeam Lotto NL - Jumbo04:24:03  +  00:03:08=41,242 
70 AUSAdam HansenBELLotto Soudal04:24:03  +  00:03:08=41,242 
71 POLMichal KwiatkowskiBELEtixx - Quick Step04:24:03  +  00:03:08=41,242 
72 AUSRichie PorteGBRSky Procycling04:24:03  +  00:03:08=41,242 
73 BELJohan VansummerenFRAAg2r La Mondiale04:24:21  +  00:03:26=41,195 
74 BELTim WellensBELLotto Soudal04:24:21  +  00:03:26=41,195 
75 FRAMatthieu LadagnousFRAFDJ04:24:29  +  00:03:34=41,175 
76 ITAMatteo BonoITALampre-Merida04:24:54  +  00:03:59=41,110 
77 COLJosé SerpaITALampre-Merida04:24:54  +  00:03:59=41,110 
78 FRAArnaud GérardFRABretagne - Séché Environnement04:24:57  +  00:04:02=41,102 
79 FRAFlorian VachonFRABretagne - Séché Environnement04:24:57  +  00:04:02=41,102 
80 FRAChristophe LaporteFRACofidis – Solutions Crédits04:24:57  +  00:04:02=41,102 
81 CZELeopold KönigGBRSky Procycling04:25:02  +  00:04:07=41,089 
82 FRAAlexandre GeniezFRAFDJ04:25:23  +  00:04:28=41,035 
83 AUTMarco HallerRUSTeam Katusha04:25:34  +  00:04:39=41,007 
84 BELThomas De GendtBELLotto Soudal04:25:47  +  00:04:52=40,973 
85 FRABryan CoquardFRATeam Europcar04:25:47  +  00:04:52=40,973 
86 FRAArnaud DémareFRAFDJ04:25:50  +  00:04:55=40,966 
87 FRAAngelo TulikFRATeam Europcar04:25:50  +  00:04:55=40,966 
88 NEDPieter WeeningAUSOrica - GreenEDGE04:26:09  +  00:05:14=40,917 
89 ITADaniele BennatiRUSTinkoff Saxo04:26:37  +  00:05:42=40,845 
90 AUSMichael RogersRUSTinkoff Saxo04:26:37  +  00:05:42=40,845 
91 CANRyder HesjedalUSATeam Cannondale - Garmin04:26:37  +  00:05:42=40,845 
92 ITADamiano CarusoUSABMC Racing Team04:26:37  +  00:05:42=40,845 
93 NORAlexander KristoffRUSTeam Katusha04:26:37  +  00:05:42=40,845 
94 USATyler FarrarZAFMTN - Qhubeka P/B Samsung04:27:07  +  00:06:12=40,769 
95 ITAIvan BassoRUSTinkoff Saxo04:27:07  +  00:06:12=40,769 
96 BELJulien VermoteBELEtixx - Quick Step04:27:07  +  00:06:12=40,769 
97 SUIGregory RastUSATrek Factory Racing04:27:07  +  00:06:12=40,769 
98 BELStijn DevolderUSATrek Factory Racing04:27:07  +  00:06:12=40,769 
99 FRAFlorian SénéchalFRACofidis – Solutions Crédits04:27:07  +  00:06:12=40,769 
100 DENLars BakBELLotto Soudal04:27:07  +  00:06:12=40,769 
101 DENMichael ValgrenRUSTinkoff Saxo04:27:07  +  00:06:12=40,769 
102 ESPDaniel NavarroFRACofidis – Solutions Crédits04:27:07  +  00:06:12=40,769 
103 URSRein TaaramäeKAZAstana Pro Team04:27:07  +  00:06:12=40,769 
104 GERMarcel SiebergBELLotto Soudal04:27:07  +  00:06:12=40,769 
105 GERAndré GreipelBELLotto Soudal04:27:07  +  00:06:12=40,769 
106 ITAJacopo GuarnieriRUSTeam Katusha04:27:07  +  00:06:12=40,769 
107 ENGStephen CummingsZAFMTN - Qhubeka P/B Samsung04:27:07  +  00:06:12=40,769 
108 ESPImanol ErvitiESPMovistar Team04:27:07  +  00:06:12=40,769 
109 ITADaniel OssUSABMC Racing Team04:27:07  +  00:06:12=40,769 
110 ENGIan StannardGBRSky Procycling04:27:07  +  00:06:12=40,769 
111 
ESPAlejandro ValverdeESPMovistar Team04:28:20  +  00:07:25=40,584 
112 SVKPeter SaganRUSTinkoff Saxo04:28:20  +  00:07:25=40,584 
113 FRATony GallopinBELLotto Soudal04:28:20  +  00:07:25=40,584 
114 BELGreg Van AvermaetUSABMC Racing Team04:28:20  +  00:07:25=40,584 
115 ENGAdam YatesAUSOrica - GreenEDGE04:28:20  +  00:07:25=40,584 
116 KENChristopher FroomeGBRSky Procycling04:28:20  +  00:07:25=40,584 
117 NEDBauke MollemaUSATrek Factory Racing04:28:20  +  00:07:25=40,584 
118 USATejay Van GarderenUSABMC Racing Team04:28:20  +  00:07:25=40,584 
119 COLJulián ArredondoUSATrek Factory Racing04:28:20  +  00:07:25=40,584 
120 ESPJoaquim RodriguezRUSTeam Katusha04:28:20  +  00:07:25=40,584 
121 FRAWarren BarguilDEUTeam Giant Alpecin04:28:20  +  00:07:25=40,584 
122 ESPAlberto ContadorRUSTinkoff Saxo04:28:20  +  00:07:25=40,584 
123 COLRigoberto UranBELEtixx - Quick Step04:28:20  +  00:07:25=40,584 
124 CZERoman KreuzigerRUSTinkoff Saxo04:28:20  +  00:07:25=40,584 
125 COLNairo QuintanaESPMovistar Team04:28:20  +  00:07:25=40,584 
126 FRAJulien SimonFRACofidis – Solutions Crédits04:28:20  +  00:07:25=40,584 
127 NEDRobert GesinkNLDTeam Lotto NL - Jumbo04:28:20  +  00:07:25=40,584 
128 FRAPierre RollandFRATeam Europcar04:28:20  +  00:07:25=40,584 
129 ESPGorka Izaguirre InsaustiESPMovistar Team04:28:20  +  00:07:25=40,584 
130 ESPSamuel SanchezUSABMC Racing Team04:28:20  +  00:07:25=40,584 
131 ENGSimon YatesAUSOrica - GreenEDGE04:28:20  +  00:07:25=40,584 
132 FRAJean-Christophe PeraudFRAAg2r La Mondiale04:28:20  +  00:07:25=40,584 
133 SUIMathias FrankCHEIAM Cycling04:28:20  +  00:07:25=40,584 
134 GERPaul MartensNLDTeam Lotto NL - Jumbo04:28:20  +  00:07:25=40,584 
135 LUXBob JungelsUSATrek Factory Racing04:28:20  +  00:07:25=40,584 
136 ITAMatteo TrentinBELEtixx - Quick Step04:28:53  +  00:07:58=40,501 
137 ITAMatteo TosattoRUSTinkoff Saxo04:28:53  +  00:07:58=40,501 
138 FRAChristophe RiblonFRAAg2r La Mondiale04:28:53  +  00:07:58=40,501 
139 FRANicolas RocheGBRSky Procycling04:28:53  +  00:07:58=40,501 
140 SUIMichael SchärUSABMC Racing Team04:28:53  +  00:07:58=40,501 
141 ITAManuel QuinziatoUSABMC Racing Team04:28:53  +  00:07:58=40,501 
142 AUSRohan DennisUSABMC Racing Team04:28:53  +  00:07:58=40,501 
143 FRASébastien ChavanelFRAFDJ04:28:53  +  00:07:58=40,501 
144 FRAJérémy RoyFRAFDJ04:28:53  +  00:07:58=40,501 
145 NEDLars BoomKAZAstana Pro Team04:28:53  +  00:07:58=40,501 
146 SUIDanilo WyssUSABMC Racing Team04:28:53  +  00:07:58=40,501 
147 SUIMartin ElmigerCHEIAM Cycling04:28:53  +  00:07:58=40,501 
148 NEDLieuwe WestraKAZAstana Pro Team04:28:53  +  00:07:58=40,501 
149 FRAPierre-Luc PérichonFRABretagne - Séché Environnement04:28:53  +  00:07:58=40,501 
150 AUTMatthias BrändleCHEIAM Cycling04:28:53  +  00:07:58=40,501 
151 LUXLaurent DidierUSATrek Factory Racing04:28:53  +  00:07:58=40,501 
152 POLMichal GolasBELEtixx - Quick Step04:28:53  +  00:07:58=40,501 
153 POLRafal MajkaRUSTinkoff Saxo04:28:53  +  00:07:58=40,501 
154 POLBartosz HuzarskiDEUBora-Argon 1804:28:53  +  00:07:58=40,501 
155 GERJohn DegenkolbDEUTeam Giant Alpecin04:28:53  +  00:07:58=40,501 
156 BELJens DebusschereBELLotto Soudal04:28:53  +  00:07:58=40,501 
157 FRAYohann GèneFRATeam Europcar04:28:53  +  00:07:58=40,501 
158 BELSam BennettDEUBora-Argon 1804:28:53  +  00:07:58=40,501 
159 CANSvein TuftAUSOrica - GreenEDGE04:28:53  +  00:07:58=40,501 
160 AUSZakkari DempsterDEUBora-Argon 1804:28:53  +  00:07:58=40,501 
161 IOMPeter KennaughGBRSky Procycling04:30:04  +  00:09:09=40,323 
162 AUSMichael MatthewsAUSOrica - GreenEDGE04:30:04  +  00:09:09=40,323 
163 IOMMark CavendishBELEtixx - Quick Step04:30:04  +  00:09:09=40,323 
164 ENGAlex DowsettESPMovistar Team04:30:04  +  00:09:09=40,323 
165 WALLuke RoweGBRSky Procycling04:30:04  +  00:09:09=40,323 
166 ERIMerhawi GhebremedhinZAFMTN - Qhubeka P/B Samsung04:30:04  +  00:09:09=40,323 
167 AUSMark RenshawBELEtixx - Quick Step04:30:04  +  00:09:09=40,323 
168 NEDAlbert TimmerDEUTeam Giant Alpecin04:30:04  +  00:09:09=40,323 
169 PORNelson OliveiraITALampre-Merida04:30:04  +  00:09:09=40,323 
170 FRAFrédéric BrunFRABretagne - Séché Environnement04:30:04  +  00:09:09=40,323 
171 FRARomain SicardFRATeam Europcar04:30:04  +  00:09:09=40,323 
172 KAZDmitriy GruzdevKAZAstana Pro Team04:30:04  +  00:09:09=40,323 
173 ITAAdriano MaloriESPMovistar Team04:30:04  +  00:09:09=40,323 
174 RSALouis MeintjesZAFMTN - Qhubeka P/B Samsung04:30:04  +  00:09:09=40,323 
175 ITAMichele ScarponiKAZAstana Pro Team04:30:04  +  00:09:09=40,323 
176 FRANicolas EdetFRACofidis – Solutions Crédits04:30:44  +  00:09:49=40,224 
177 BELKenneth VanbilsenFRACofidis – Solutions Crédits04:30:44  +  00:09:49=40,224 
178 NEDDylan Van BaarleUSATeam Cannondale - Garmin04:31:53  +  00:10:58=40,054 
179 ITADavide CimolaiITALampre-Merida04:31:53  +  00:10:58=40,054 
180 AUSNathan HaasUSATeam Cannondale - Garmin04:31:53  +  00:10:58=40,054 
181 NEDSebastian LangeveldUSATeam Cannondale - Garmin04:31:53  +  00:10:58=40,054 
182 URSRamunas NavardauskasUSATeam Cannondale - Garmin04:31:53  +  00:10:58=40,054 
183 NEDWout PoelsGBRSky Procycling04:31:53  +  00:10:58=40,054 
184 GEREmanuel BuchmannDEUBora-Argon 1804:31:53  +  00:10:58=40,054 
185 FRADamien GaudinFRAAg2r La Mondiale04:31:53  +  00:10:58=40,054 

Withdrawls: 1
 
Rider
Team
Reason
99  ITALuca PaoliniRUSTeam KatushaDid not start

Todays birthdays.

1874  Henri Timmermann
1877  Gustave Guillarme
1886  Guillaume Nyssen
1892  Albert Cartigny
1913  Arsène Mersch
1919  Jean Breuer
1927  Alfred Kain
1930  Edgard Sorgeloos
1937  Frans De Mulder
1960  Jacques Hanegraaf
1986  Andrey Zeits